Miscellaneous Local Product
Issued by NWS Hastings, NE

Home | Current Version | Previous Version | Graphics & Text | Print | Product List | Glossary On
Versions: 1 2 3 4 5 6 7 8 9 10 11 12 13 14 15 16 17 18 19 20 21 22 23 24 25 26 27 28 29 30 31 32 33 34 35 36 37 38 39 40 41 42 43 44 45 46 47 48 49 50
000
AXUS43 KGID 281602
MISGRI

GID CWA HOURLY WEATHER ROUNDUP
NATIONAL WEATHER SERVICE HASTINGS NE
1100 AM CDT MON JUL 28 2014

NOTE: "FAIR" INDICATES FEW OR NO CLOUDS BELOW 12,000 FEET WITH NO
SIGNIFICANT WEATHER AND/OR OBSTRUCTIONS TO VISIBILITY.

...SOUTH CENTRAL NEBRASKA...

CITY           SKY/WX    TMP DP  RH WIND       PRES   REMARKS
GRAND ISLAND   SUNNY     70  55  59 N6        30.34S
HASTINGS       SUNNY     70  54  56 N7        30.34S
KEARNEY        SUNNY     70  55  60 N5        30.35S
ORD            SUNNY     70  54  56 NE8       30.33S
YORK           PTSUNNY   68  57  68 N7        30.33R
AURORA         MOSUNNY   70  57  63 N6        30.33S
LEXINGTON      SUNNY     70  59  66 E5        30.36S
HOLDREGE       SUNNY     69  56  64 NE5       30.36S
HEBRON         SUNNY     71  54  55 N7        30.32R

...NEBRASKA PANHANDLE...

CITY           SKY/WX    TMP DP  RH WIND       PRES   REMARKS
CHADRON        SUNNY     75  53  46 SE12      30.32F
ALLIANCE       PTSUNNY   76  52  43 SE10      30.36R
SCOTTSBLUFF    SUNNY     70  54  56 E13       30.34F
SIDNEY         SUNNY     75  53  46 SE13      30.36S

...WESTERN AND NORTH CENTRAL NEBRASKA...

CITY           SKY/WX    TMP DP  RH WIND       PRES   REMARKS
VALENTINE      MOSUNNY   70  54  56 VRB3      30.35S
AINSWORTH      SUNNY     67  54  62 N6        30.35F
ONEILL         MOSUNNY   68  51  54 N10       30.34S
BROKEN BOW     SUNNY     71  55  56 VRB3      30.35S
IMPERIAL       MOSUNNY   74  56  53 SE18      30.34F
NORTH PLATTE   SUNNY     72  57  59 SE8       30.35S
MCCOOK         MOSUNNY   74  58  57 SE13      30.34F

...EASTERN NEBRASKA...

CITY           SKY/WX    TMP DP  RH WIND       PRES   REMARKS
NORFOLK        MOSUNNY   69  52  54 N14       30.30F
SO SIOUX CITY  PTSUNNY   71  56  58 N13       30.26F
ALBION         MOSUNNY   67  55  65 NE9       30.33R
OMAHA EPPLEY   PTSUNNY   70  58  65 NW5       30.26F
OFFUTT AFB     MOSUNNY   70  60  72 NW12      30.26S
MILLARD        CLOUDY    70  58  65 NW5       30.27S
LINCOLN        MOSUNNY   74  54  49 N13       30.30R
NEBRASKA CITY  CLOUDY    67  58  71 N6        30.27S
BEATRICE       SUNNY     70  56  62 N15       30.30S
FALLS CITY     PTSUNNY   73  60  63 N9        30.25S

...NORTHERN KANSAS...

CITY           SKY/WX    TMP DP  RH WIND       PRES   REMARKS
GOODLAND       MOSUNNY   77  59  53 S10       30.34F
HILL CITY      SUNNY     75  58  55 SE13      30.34F
NORTON         SUNNY     75  54  46 E9        30.35S
PHILLIPSBURG   SUNNY     72  55  56 SE5       30.35S
SMITH CENTER   SUNNY     72  54  53 CALM      30.35S
HAYS           SUNNY     73  57  56 SE8       30.35S
RUSSELL        SUNNY     74  56  53 MISG      30.34S
CONCORDIA      SUNNY     74  58  57 N8        30.32R
SALINA         SUNNY     77  55  46 N6        30.32R
TOPEKA         MOSUNNY   77  58  51 NW15      30.26R



USA.gov is the U.S. government's official web portal to all federal, state and local government web resources and services.